Location: Moena
(46.3667°N, 11.6500°E)
Time: 14:56:35
(UTC+00:00)

Cosmos 192 - Pass Details

Date: 03 March 2021
Orbit: 700 x 714 km, 74.0° (Epoch: 14 April)

Event Time Altitude Azimuth Distance (km) Brightness Sun altitude
Rises 19:14:44 0° 202° (SSW) 3,073 7.7 -23.4°
Reaches altitude 10° 19:17:02 10° 204° (SSW) 2,160 6.9 -23.8°
Maximum altitude 19:21:55 82° 291° (WNW) 716 4.3 -24.6°
Drops below altitude 10° 19:26:51 10° 20° (NNE) 2,183 6.8 -25.4°
Sets 19:29:12 0° 22° (NNE) 3,107 7.6 -25.8°
